www.pogodaiklimat.ru

Погода и климат >> Архив погоды >> Австралия >> Западная Австралия >> Остров Роттнест


ПОГОДА на Острове Роттнест

  • Прогноз погоды на Острове Роттнест
  • Монитор погоды на Острове Роттнест

АРХИВ ПОГОДЫ на Острове Роттнест

Время (UTC), дата Ветер
(напр.,м/с)
 
Видим.   Явления Облачность Т
(С)
Тd
(С)
f
(%)
Тe
(С)
Тes
(С)
Комфортность P
(гПа)
Po
(гПа)
Тmin
(С)
Tmax
(С)
R
(мм)
R24
(мм)
S
(см)
01 12.03 В 4 н/о н/о +22.2 +12.7 55 +25 +25 комфорт 1015.8 1010.8 +18.9
03 12.03 Ю 5 н/о н/о +22.6 +13.1 55 +26 +26 жарко 1015.7 1010.7
04 12.03 Ю 5 н/о н/о +23.7 +12.7 50 +26 +26 жарко 1015.8 1010.8
06 12.03 Ю 7 н/о н/о +22.8 +15.4 63 +27 +27 душно 1015.4 1010.4
07 12.03 Ю 8 н/о н/о +22.9 +16.7 68 +28 +28 душно 1014.5 1009.5
09 12.03 ЮЗ 7 н/о н/о +22.1 +16.8 72 +26 +26 душно 1014.8 1009.8
10 12.03 ЮЗ 7 н/о н/о +21.2 +17.2 78 +25 +25 комфорт 1014.4 1009.4
12 12.03 Ю 8 н/о н/о +20.3 +17.9 86 +23 +23 комфорт 1014.8 1009.8
13 12.03 Ю 11 н/о н/о +19.7 +17.1 85 +21 +21 комфорт 1014.5 1009.5 +25.0
15 12.03 Ю 11 н/о н/о +20.0 +17.0 83 +22 +22 комфорт 1014.1 1009.1
16 12.03 Ю 11 н/о н/о +19.4 +16.1 81 +20 +20 1014.1 1009.1
18 12.03 Ю 12 н/о н/о +18.6 +14.9 79 +18 +18 1014.2 1009.2
19 12.03 Ю 12 н/о н/о +18.8 +15.1 79 +19 +19 1014.3 1009.3
21 12.03 Ю 9 н/о н/о +18.1 +15.4 84 +17 +17 1015.6 1010.6
22 12.03 Ю 9 н/о н/о +18.0 +14.7 81 +17 +17 1016.1 1011.1
00 13.03 Ю 9 н/о н/о +18.4 +14.1 76 +18 +18 1017.5 1012.5
01 13.03 Ю 9 н/о н/о +18.9 +14.2 74 +19 +19 1017.6 1012.6 +17.9
03 13.03 Ю 10 н/о н/о +20.2 +12.9 63 +21 +21 комфорт 1017.2 1012.2
04 13.03 Ю 10 н/о н/о +20.9 +13.1 61 +23 +23 комфорт 1016.9 1011.9
06 13.03 Ю 11 н/о н/о +21.9 +14.8 64 +25 +25 комфорт 1015.4 1010.4
07 13.03 Ю 11 н/о н/о +21.6 +14.3 63 +25 +25 комфорт 1015.3 1010.3
09 13.03 Ю 12 н/о н/о +20.9 +15.4 71 +23 +23 комфорт 1015.2 1010.2
10 13.03 Ю 13 н/о н/о +20.1 +16.1 78 +22 +22 комфорт 1015.5 1010.5
12 13.03 Ю 12 н/о н/о +20.3 +16.9 81 +23 +23 комфорт 1016.1 1011.1
13 13.03 Ю 12 н/о н/о +20.5 +17.1 81 +23 +23 комфорт 1016.6 1011.6 +22.6
15 13.03 Ю 12 н/о н/о +21.0 +17.2 79 +24 +24 комфорт 1016.4 1011.4
16 13.03 Ю 10 н/о н/о +20.8 +16.4 76 +24 +24 комфорт 1016.6 1011.6
18 13.03 Ю 9 н/о н/о +20.6 +16.2 76 +23 +23 комфорт 1016.9 1011.9
19 13.03 ЮВ 7 н/о н/о +20.5 +14.8 70 +23 +23 комфорт 1017.2 1012.2
21 13.03 ЮВ 5 н/о н/о +19.5 +13.9 70 +21 +21 комфорт 1018.2 1013.2
22 13.03 ЮВ 5 н/о н/о +19.1 +13.5 70 +20 +20 1018.6 1013.6
00 14.03 ЮВ 5 н/о н/о +20.1 +14.0 68 +22 +22 комфорт 1019.2 1014.2
01 14.03 ЮВ 7 н/о н/о +19.6 +13.5 68 +21 +21 комфорт 1019.0 1014.0 +18.4
03 14.03 Ю 6 н/о н/о +21.5 +14.6 65 +25 +25 комфорт 1018.7 1013.7
04 14.03 Ю 6 н/о н/о +22.2 +16.0 68 +26 +26 душно 1017.7 1012.7
06 14.03 ЮЗ 7 н/о н/о +23.3 +17.3 69 +29 +29 душно 1016.1 1011.1
07 14.03 ЮЗ 8 н/о н/о +22.3 +17.2 73 +27 +27 душно 1015.4 1010.4
09 14.03 Ю 9 н/о н/о +22.0 +17.4 75 +26 +26 душно 1014.2 1009.2
10 14.03 Ю 9 н/о н/о +21.5 +17.5 78 +26 +26 душно 1014.2 1009.2
12 14.03 Ю 8 н/о н/о +20.8 +17.8 83 +24 +24 комфорт 1014.5 1009.5
13 14.03 Ю 7 н/о н/о +21.0 +18.0 83 +25 +25 комфорт 1014.7 1009.7 +24.4
15 14.03 ЮВ 5 н/о н/о +21.5 +19.4 88 +26 +26 душно 1014.0 1009.0
16 14.03 ЮВ 5 н/о н/о +21.6 +18.0 80 +26 +26 душно 1013.4 1008.4
18 14.03 В 4 н/о н/о +21.4 +14.3 64 +24 +24 комфорт 1012.4 1007.4
19 14.03 ЮВ 3 н/о н/о +20.7 +14.8 69 +24 +24 комфорт 1012.1 1007.1
21 14.03 ЮВ 4 н/о н/о +20.7 +15.7 73 +24 +24 комфорт 1011.9 1006.9
22 14.03 В 4 н/о н/о +20.5 +14.8 70 +23 +23 комфорт 1012.1 1007.1
00 15.03 В 3 н/о н/о +22.0 +15.6 67 +26 +26 душно 1013.0 1008.0
01 15.03 С 3 н/о н/о +23.1 +13.6 55 +26 +26 жарко 1013.0 1008.0 +19.7
03 15.03 Ю 5 н/о н/о +23.9 +15.4 59 +27 +27 жарко 1012.9 1007.9
04 15.03 Ю 5 н/о н/о +23.2 +15.8 63 +28 +28 душно 1012.4 1007.4
06 15.03 ЮЗ 7 н/о н/о +23.8 +15.0 58 +27 +27 жарко 1012.0 1007.0
07 15.03 ЮЗ 8 н/о н/о +23.6 +16.4 64 +27 +27 жарко 1011.7 1006.7
09 15.03 ЮЗ 9 н/о н/о +22.2 +17.3 74 +27 +27 душно 1011.6 1006.6
10 15.03 ЮЗ 9 н/о н/о +21.2 +18.2 83 +25 +25 комфорт 1011.8 1006.8
12 15.03 Ю 9 н/о н/о +20.3 +18.2 88 +23 +23 комфорт 1012.7 1007.7
13 15.03 Ю 10 н/о н/о +20.2 +18.0 87 +23 +23 комфорт 1013.4 1008.4 +27.0
15 15.03 Ю 9 н/о н/о +19.8 +17.8 88 +22 +22 комфорт 1013.2 1008.2
16 15.03 Ю 9 н/о н/о +19.7 +17.5 87 +21 +21 комфорт 1013.1 1008.1
18 15.03 Ю 9 н/о н/о +19.5 +17.6 89 +21 +21 комфорт 1012.3 1007.3
19 15.03 Ю 9 н/о н/о +19.3 +17.4 89 +20 +20 1011.9 1006.9
21 15.03 Ю 11 н/о н/о +19.4 +17.4 88 +20 +20 1012.0 1007.0
22 15.03 Ю 10 н/о н/о +19.3 +17.1 87 +20 +20 1012.8 1007.8
00 16.03 Ю 9 н/о н/о +20.0 +16.8 82 +22 +22 комфорт 1014.0 1009.0
01 16.03 Ю 9 н/о н/о +20.7 +15.9 74 +23 +23 комфорт 1014.4 1009.4 +19.1
03 16.03 Ю 8 н/о н/о +22.2 +16.2 69 +26 +26 душно 1014.5 1009.5
04 16.03 Ю 8 н/о н/о +22.4 +16.4 69 +27 +27 душно 1014.3 1009.3
06 16.03 Ю 9 н/о н/о +23.3 +17.1 68 +28 +28 душно 1013.1 1008.1
07 16.03 Ю 10 н/о н/о +22.9 +16.4 67 +28 +28 душно 1012.4 1007.4
09 16.03 ЮЗ 10 н/о н/о +22.7 +16.9 70 +27 +27 душно 1012.3 1007.3
10 16.03 ЮЗ 10 н/о н/о +22.1 +17.0 73 +27 +27 душно 1012.3 1007.3
12 16.03 Ю 10 н/о н/о +21.8 +17.8 78 +26 +26 душно 1013.1 1008.1
13 16.03 Ю 11 н/о н/о +21.6 +18.0 80 +26 +26 душно 1013.1 1008.1 +24.4
15 16.03 ЮВ 5 н/о н/о +21.9 +19.1 84 +27 +27 душно 1013.4 1008.4
16 16.03 ЮВ 5 н/о н/о +22.4 +16.9 71 +27 +27 душно 1013.4 1008.4
18 16.03 ЮВ 9 н/о н/о +21.6 +15.0 66 +25 +25 комфорт 1013.4 1008.4
19 16.03 ЮВ 7 н/о н/о +21.1 +14.7 67 +24 +24 комфорт 1013.8 1008.8
21 16.03 ЮВ 6 н/о н/о +19.9 +14.9 73 +22 +22 комфорт 1014.2 1009.2
22 16.03 ЮВ 8 н/о н/о +19.9 +15.1 74 +22 +22 комфорт 1014.6 1009.6
00 17.03 ЮВ 7 н/о н/о +21.2 +16.0 72 +25 +25 комфорт 1015.3 1010.3
01 17.03 ЮВ 7 н/о н/о +22.0 +15.8 68 +26 +26 душно 1015.3 1010.3 +19.7
03 17.03 Ю 6 н/о н/о +23.8 +18.0 70 +28 +28 душно 1014.6 1009.6
04 17.03 Ю 7 н/о н/о +24.6 +18.8 70 +29 +29 душно 1013.7 1008.7
06 17.03 ЮЗ 8 н/о н/о +24.6 +18.8 70 +29 +29 душно 1012.7 1007.7
07 17.03 ЮЗ 9 н/о н/о +24.1 +18.7 72 +29 +29 душно 1012.0 1007.0
09 17.03 Ю 11 н/о н/о +23.2 +18.5 75 +29 +29 душно 1011.3 1006.3
10 17.03 Ю 10 н/о н/о +22.5 +18.7 79 +28 +28 душно 1011.7 1006.7
12 17.03 Ю 11 н/о н/о +21.6 +19.0 85 +26 +26 душно 1012.1 1007.1
13 17.03 Ю 11 н/о н/о +21.6 +19.3 87 +27 +27 душно 1012.4 1007.4 +27.1
15 17.03 Ю 8 н/о н/о +22.3 +19.8 86 +28 +28 душно 1011.6 1006.6
16 17.03 Ю 7 н/о н/о +22.6 +19.8 84 +29 +29 очень
душно
1011.5 1006.5
18 17.03 ЮВ 3 н/о н/о +22.6 +18.8 79 +28 +28 душно 1011.5 1006.5
19 17.03 ЮВ 4 н/о н/о +22.1 +18.5 80 +27 +27 душно 1011.5 1006.5
21 17.03 ЮВ 4 н/о н/о +22.0 +18.4 80 +27 +27 душно 1011.7 1006.7
22 17.03 ЮВ 4 н/о н/о +21.7 +18.1 80 +26 +26 душно 1012.0 1007.0
00 18.03 В 4 н/о н/о +24.2 +17.7 67 +28 +28 душно 1013.0 1008.0
01 18.03 СВ 4 н/о н/о +25.4 +16.8 59 +29 +29 душно 1012.9 1007.9 +21.2
03 18.03 СВ 2 н/о н/о +29.1 +17.0 48 +33 +33 очень
душно
1012.4 1007.4
04 18.03 З 4 н/о н/о +28.2 +18.3 55 +33 +33 очень
душно
1011.6 1006.6
06 18.03 З 5 н/о н/о +28.4 +17.0 50 +32 +32 душно 1010.1 1005.1
07 18.03 ЮЗ 6 н/о н/о +26.0 +18.4 63 +31 +31 очень
душно
1009.4 1004.4
09 18.03 Ю 6 н/о н/о +24.3 +19.1 73 +29 +29 душно 1009.2 1004.2
10 18.03 Ю 6 н/о н/о +23.3 +19.0 77 +30 +30 очень
душно
1009.6 1004.6
12 18.03 Ю 5 н/о н/о +22.5 +18.5 78 +28 +28 душно 1010.2 1005.2
13 18.03 Ю 4 н/о н/о +22.3 +18.7 80 +28 +28 душно 1010.6 1005.6 +29.9
15 18.03 Ю 4 н/о н/о +22.1 +19.3 84 +28 +28 душно 1010.2 1005.2
16 18.03 Ю 1 н/о н/о +21.9 +19.5 86 +27 +27 душно 1009.7 1004.7
18 18.03 ЮЗ 5 н/о н/о +21.8 +19.9 89 +27 +27 душно 1009.9 1004.9
19 18.03 ЮВ 3 н/о н/о +22.1 +19.5 85 +28 +28 душно 1009.0 1004.0
21 18.03 СВ 4 н/о н/о +22.3 +19.7 85 +28 +28 душно 1009.3 1004.3
22 18.03 С 5 н/о н/о +21.7 +20.5 93 +27 +27 душно 1009.7 1004.7
00 19.03 СЗ 5 н/о н/о +22.8 +22.0 95 +31 +31 очень
душно
1010.5 1005.5
01 19.03 З 5 н/о н/о +23.3 +21.4 89 +31 +31 очень
душно
1010.7 1005.7 +20.8

 

Местоположение метеостанции Остров Роттнест (Западная Австралия, Австралия): широта -32.02 долгота 115.50 высота над уровнем моря 43 м.

В архиве по умолчанию представлена погода на Острове Роттнест за последнюю неделю. Архивные данные за месяц целиком и за предыдущие месяцы, начиная с января 2011 года, Вы можете получить, выбрав интересующий диапазон дат из раскрывающегося списка и нажав кнопку "Ввод!".


*Определитесь, кто Вы:
робот инопланетянин человек

Внимание! Время в таблицах - всемирное. Для получения местного времени необходимо прибавить поправку, которая равна 8 ч.

Смотрите также архив погоды в соседних городах и на ближайших метеорологических станциях:

Погода в Суонборне (Западная Австралия, Австралия) (27 км)
Погода на Острове Гарден (Западная Австралия, Австралия) (29 км)
Погода в Ошен Риф (Западная Австралия, Австралия) (36 км)
Погода в Перт Монт-Лоули (Западная Австралия, Австралия) (37 км)
Погода в Перт Джандакот (Западная Австралия, Австралия) (37 км)
Погода в Перте (Западная Австралия, Австралия) (45 км)
Погода в Гусберри Хилл (Западная Австралия, Австралия) (52 км)
Погода в Мандуре (Западная Австралия, Австралия) (59 км)
Погода в Обсерватории Перт (Западная Австралия, Австралия) (59 км)
Погода в Буллсбрук Пирс (Западная Австралия, Австралия) (63 км)

Пояснения к столбцам:

Ветер - указаны скорость ветра в м/с - средняя за 10 мин, порывы в срок и между сроками (в фигурных скобках) и направление, откуда дует ветер: С - северный, СВ - северо-восточный, В - восточный, ЮВ - юго-восточный, Ю - южный, ЮЗ - юго-западный, З - западный, СЗ - северо-западный.
Видимость - горизонтальная дальность видимости в метрах или километрах. При видимости от 1 до 10 км при отсутствии осадков обычно наблюдается дымка, при ухудшении видимости до 1 км и менее - туман. В сухую погоду видимость может ухудшаться дымом, пылью или мглою.
Явления - указаны атмосферные явления, наблюдавшиеся в срок или в последний час перед сроком; фигурными скобками обозначены явления, наблюдавшиеся между сроками (за 1-3 часа до срока); квадратными скобками обозначены град или гололедные отложения с указанием их диаметра в мм.
Облачность - указаны через наклонную черту общая и нижняя облачность в баллах и высота нижней границы облаков в метрах; квадратными скобками обозначены формы облаков: Ci - перистые, Cs - перисто-слоистые, Cc - перисто-кучевые, Ac - высококучевые, As - высокослоистые, Sc - слоисто-кучевые, Ns - слоисто-дождевые, Cu - кучевые, Cb - кучево-дождевые. Подробнее классификацию облаков см. в Атласе облаков (PDF).
T - Температура воздуха - температура, измеренная на высоте 2 м над землей.
Td - Температура точки росы - температура, при понижении до которой содержащийся в воздухе водяной пар достигнет насыщения.
f - Относительная влажность воздуха - влажноcть воздуха, измеренная на высоте 2 м над землей.
Te - Эффективная температура - температура, которую ощущает одетый по сезону человек в тени. Характеристика душности погоды. При расчете учитывается влияние влажности воздуха и скорости ветра на теплоощущения человека.
Tes - Эффективная температура на солнце - температура, которую ощущает человек, с поправкой на солнечный нагрев. Характеристика знойности погоды. Зависит от высоты солнца над горизонтом, облачности и скорости ветра. Ночью, в пасмурную погоду, а также при ветре 12 м/с и более поправка равна нулю.
P - Атмосферное давление - приведенное к уровню моря атмосферное давление.
Po - Атмосферное давление - измеренное на уровне метеостанции атмосферное давление.
Tmin - Минимальная температура - минимум температуры воздуха на высоте 2 м над землей.
Tmax - Максимальная температура - максимум температуры воздуха на высоте 2 м над землей.
R - Количество осадков - Количество выпавших осадков за период времени, мм. При наведении курсора мыши на число - период времени, за который выпало указанное количество осадков.
R24 - Количество осадков - Количество выпавших осадков за 24 часа, мм.
S - Снежный покров - Высота снежного покрова, см. При наведении курсора мыши на число - состояние снежного покрова и степень покрытия местности в баллах.